Weather History for Pula, Croatia

Change the Weather History Date:

Thursday, January 2, 2014

  Actual Average Record
Temperature  
Mean Temperature 40 °F -  
Max Temperature 51 °F - - ()
Min Temperature 30 °F - - ()
Degree Days  
Heating Degree Days 24    
Moisture  
Dew Point 42 °F    
Average Humidity 91    
Maximum Humidity 100    
Minimum Humidity 74    
Precipitation  
Precipitation 0.08 in - - ()
Sea Level Pressure  
Sea Level Pressure 30.05 in    
Wind  
Wind Speed 3 mph ()    
Max Wind Speed 9 mph    
Max Gust Speed -    
Visibility 8.0 miles    
Events Fog , Rain    
T = Trace of Precipitation, MM = Missing Value Source: Averaged Metar Reports

Daily Weather History Graph

Daily Weather History Graph

Search for Another Location

Airport:

Trip Planner

Search our weather history database for the weather conditions in past years. The results will help you decide how hot, cold, wet, or windy it might be!

Date:

Astronomy

Jan. 02, 2014 Rise Set
Actual Time 7:42 AM CET 4:34 PM CET
Civil Twilight 7:08 AM CET 5:08 PM CET
Nautical Twilight 6:31 AM CET 5:45 PM CET
Astronomical Twilight 5:56 AM CET 6:20 PM CET
Moon 8:05 AM CET (1/2) 6:15 PM CET (1/2)
Length of Visible Light 9h 59m
Length of Day
8h 52m
New Moon, 2% of the Moon is Illuminated
Jan 2
New Moon
Jan 8
First Quarter
Jan 16
Full
Jan 24
Last Quarter
Jan 30
New

Hourly Weather History & Observations

Time (CET) Temp. Windchill Dew Point Humidity Pressure Visibility Wind Dir Wind Speed Gust Speed Precip Events Conditions
12:00 AM 35.6 °F - 33.8 °F 93% 30.12 in - Variable 2.3 mph - N/A   Clear
12:30 AM 33.8 °F - 33.8 °F 100% 30.12 in - Variable 2.3 mph - N/A   Clear
1:00 AM 35 °F - 33 °F 91% 30.13 in 9 mi ENE 2.2 mph - -  
1:00 AM 33.8 °F - 33.8 °F 100% 30.09 in - Variable 2.3 mph - N/A   Clear
1:30 AM 35.6 °F - 35.6 °F 100% 30.09 in - Variable 2.3 mph - N/A   Clear
2:00 AM 35.6 °F - 33.8 °F 93% 30.09 in - Variable 2.3 mph - N/A   Clear
2:30 AM 30.2 °F - 30.2 °F 100% 30.09 in - Variable 2.3 mph - N/A   Clear
3:00 AM 33.8 °F - 32.0 °F 93% 30.09 in - Variable 2.3 mph - N/A   Clear
3:30 AM 33.8 °F - 33.8 °F 100% 30.06 in - Variable 2.3 mph - N/A   Clear
4:00 AM 33 °F - 32 °F 94% 30.10 in 9 mi ESE 2.2 mph - -  
4:00 AM 33.8 °F 30.8 °F 32.0 °F 93% 30.06 in - Variable 3.5 mph - N/A   Clear
4:30 AM 32.0 °F - 32.0 °F 100% 30.06 in - Variable 2.3 mph - N/A   Clear
5:00 AM 34 °F - 33 °F 96% 30.09 in 9 mi SE 2.2 mph - -  
5:00 AM 33.8 °F - 33.8 °F 100% 30.06 in - Variable 2.3 mph - N/A   Clear
5:30 AM 33.8 °F - 33.8 °F 100% 30.06 in - Variable 2.3 mph - N/A   Clear
6:00 AM 31 °F - 30 °F 96% 30.09 in 9 mi NE 4.5 mph - -  
6:00 AM 32.0 °F - 30.2 °F 93% 30.06 in - Variable 2.3 mph - N/A   Clear
6:30 AM 35.6 °F - 35.6 °F 100% 30.06 in - Variable 2.3 mph - N/A   Clear
7:00 AM 36 °F - 35 °F 97% 30.08 in 12 mi NE 2.2 mph - -   Clear
7:00 AM 35.6 °F 32.8 °F 35.6 °F 100% 30.06 in - Variable 3.5 mph - N/A   Clear
7:30 AM 37.4 °F 33.8 °F 35.6 °F 93% 30.04 in 6.2 mi ENE 4.6 mph - N/A Fog Shallow Fog
8:00 AM 37 °F - 36 °F 93% 30.08 in 9 mi ENE 4.5 mph - - Fog Patches of Fog
8:00 AM 37.4 °F 33.8 °F 35.6 °F 93% 30.06 in 6.2 mi ENE 4.6 mph - N/A Fog Shallow Fog
8:30 AM 39.2 °F 35.9 °F 37.4 °F 93% 30.06 in 6.2 mi ENE 4.6 mph - N/A Fog Shallow Fog
9:00 AM 40 °F - 38 °F 92% 30.08 in 11 mi ENE 4.5 mph - - Fog Patches of Fog
9:00 AM 39.2 °F 35.9 °F 39.2 °F 100% 30.06 in 6.2 mi ENE 4.6 mph - N/A Fog Shallow Fog
9:30 AM 44.6 °F - 42.8 °F 93% 30.06 in 6.2 mi Variable 2.3 mph - N/A   Partly Cloudy
10:00 AM 46 °F - 45 °F 95% 30.08 in 11 mi ENE 2.2 mph - -   Scattered Clouds
10:00 AM 46.4 °F - 44.6 °F 93% 30.06 in 6.2 mi Variable 2.3 mph - N/A   Partly Cloudy
10:30 AM 46.4 °F 43.5 °F 44.6 °F 93% 30.04 in - East 5.8 mph - N/A   Clear
11:00 AM 49 °F - 45 °F 82% 30.06 in 14 mi East 4.5 mph - -   Clear
11:00 AM 48.2 °F - 44.6 °F 87% 30.04 in - East 4.6 mph - N/A   Clear
11:30 AM 50.0 °F - 44.6 °F 82% 30.04 in 6.2 mi East 4.6 mph - N/A   Partly Cloudy
12:00 PM 51 °F - 45 °F 74% 30.03 in 16 mi East 6.7 mph - -   Scattered Clouds
12:00 PM 50.0 °F - 44.6 °F 82% 30.01 in 6.2 mi East 5.8 mph - N/A   Partly Cloudy
12:30 PM 50.0 °F - 44.6 °F 82% 30.01 in 6.2 mi East 6.9 mph - N/A   Partly Cloudy
1:00 PM 50 °F - 45 °F 77% 30.03 in 16 mi ESE 4.5 mph - -   Scattered Clouds
1:00 PM 50.0 °F - 44.6 °F 82% 30.01 in 6.2 mi ESE 4.6 mph - N/A   Partly Cloudy
1:30 PM 51.8 °F - 46.4 °F 82% 30.01 in 6.2 mi East 5.8 mph - N/A   Partly Cloudy
2:00 PM 50 °F - 46 °F 79% 30.01 in 16 mi East 6.7 mph - -   Scattered Clouds
2:00 PM 50.0 °F - 46.4 °F 87% 30.01 in 6.2 mi East 4.6 mph - N/A   Partly Cloudy
2:30 PM 51.8 °F - 46.4 °F 82% 30.01 in 6.2 mi SE 4.6 mph - N/A   Partly Cloudy
3:00 PM 51 °F - 45 °F 74% 30.02 in 14 mi ESE 4.5 mph - -   Partly Cloudy
3:00 PM 50.0 °F - 44.6 °F 82% 30.01 in 6.2 mi ESE 4.6 mph - N/A   Scattered Clouds
3:30 PM 51.8 °F - 46.4 °F 82% 30.01 in 6.2 mi Variable 2.3 mph - N/A   Scattered Clouds
4:00 PM 51 °F - 46 °F 78% 30.03 in 12 mi SE 2.2 mph - - Rain Light Rain
4:00 PM 51.8 °F - 46.4 °F 82% 30.01 in 6.2 mi Variable 1.2 mph - N/A Rain Light Rain
4:30 PM 51.8 °F - 46.4 °F 82% 30.01 in 6.2 mi Variable 1.2 mph - N/A Rain Light Rain
5:00 PM 50 °F - 47 °F 85% 30.03 in 11 mi SE 8.9 mph - - Rain Light Rain
5:00 PM 50.0 °F - 46.4 °F 87% 30.01 in 6.2 mi Variable 1.2 mph - N/A Rain Light Rain
5:30 PM 50.0 °F - 48.2 °F 94% 30.01 in 6.2 mi Variable 1.2 mph - N/A Rain Light Rain
6:00 PM 49 °F - 47 °F 92% 30.03 in 8 mi Calm Calm - - Rain Light Rain
6:00 PM 50.0 °F - 48.2 °F 94% 30.01 in 6.2 mi Calm Calm - N/A Rain Light Rain
6:30 PM 50.0 °F - 48.2 °F 94% 30.01 in 6.2 mi Variable 1.2 mph - N/A Rain Light Rain
7:00 PM 49 °F - 48 °F 94% 30.04 in 6 mi SSE 2.2 mph - - Rain Light Rain
7:00 PM 50.0 °F - 48.2 °F 94% 30.01 in 6.2 mi Variable 1.2 mph - N/A Rain Light Rain
7:30 PM 50.0 °F - 48.2 °F 94% 30.01 in 6.2 mi Variable 2.3 mph - N/A Rain Light Rain
8:00 PM 50.0 °F - 48.2 °F 94% 30.01 in 6.2 mi SSE 4.6 mph - N/A Rain Light Rain
8:30 PM 50.0 °F - 48.2 °F 94% 30.01 in 6.2 mi Variable 2.3 mph - N/A Rain Light Rain
9:00 PM 50.0 °F - 48.2 °F 94% 30.01 in 6.2 mi Variable 2.3 mph - N/A   Mostly Cloudy
9:30 PM 50.0 °F - 50.0 °F 100% 30.01 in 6.2 mi Variable 2.3 mph - N/A   Mostly Cloudy
10:00 PM 50 °F - 49 °F 94% 30.04 in 6 mi SE 2.2 mph - - Rain Light Rain
10:00 PM 50.0 °F - 48.2 °F 94% 30.04 in 6.2 mi Variable 2.3 mph - N/A Rain Light Rain
10:30 PM 51.8 °F - 50.0 °F 94% 30.04 in 6.2 mi Variable 2.3 mph - N/A Rain Light Rain
11:00 PM 51.8 °F - 50.0 °F 94% 30.04 in 6.2 mi Calm Calm - N/A Rain Light Rain
11:30 PM 51.8 °F - 50.0 °F 94% 30.04 in 6.2 mi Variable 1.2 mph - N/A Rain Light Rain